JPSS-2

Last updated on Mon Dec 05 2022 00:02:03 GMT+0000 (Coordinated Universal Time)

1 54234U 22150A 22337.64106843 .00000090 00000+0 57965-4 0 9991 2 54234 98.6986 273.7891 0023452 173.3101 186.8352 14.24093030 3300

Satellite not in orbit

JPSS-2